Key West NAF, FL

10:04 PM EDT on July 25, 2017 (GMT -0400)
Key West Naval Air Station

Weather History for KNQX - January, 2014

Change the Weather History Date:

Tuesday, January 28, 2014

  Actual Average Record
Temperature  
Mean Temperature 74 °F -  
Max Temperature 79 °F 73 °F 84 °F (1991)
Min Temperature 68 °F 63 °F 47 °F (1986)
Cooling Degree Days 8    
Growing Degree Days 24 (Base 50)    
Moisture  
Dew Point 58 °F    
Average Humidity 66    
Maximum Humidity 95    
Minimum Humidity 20    
Precipitation  
Precipitation 0.01 in - - ()
Sea Level Pressure  
Sea Level Pressure 30.03 in    
Wind  
Wind Speed 6 mph (East)    
Max Wind Speed 10 mph    
Max Gust Speed -    
Visibility 10 miles    
Events      
Averages and records for this station are not official NWS values.
T = Trace of Precipitation, MM = Missing Value Source: NWS Daily Summary

Daily Weather History Graph

Daily Weather History Graph

Search for Another Location

Airport or City:

Trip Planner

Search our weather history database for the weather conditions in past years. The results will help you decide how hot, cold, wet, or windy it might be!

Date:

Astronomy

Jan. 28, 2014 Rise Set
Actual Time 7:10 AM EST 6:09 PM EST
Civil Twilight 6:46 AM EST 6:33 PM EST
Nautical Twilight 6:18 AM EST 7:00 PM EST
Astronomical Twilight 5:51 AM EST 7:27 PM EST
Moon 4:46 AM EST (1/28) 4:01 PM EST (1/28)
Length of Visible Light 11h 47m
Length of Day
10h 59m
Waning Crescent, 7% of the Moon is Illuminated
Jan 28
Waning Crescent
Jan 30
New
Feb 6
First Quarter
Feb 14
Full
Feb 22
Last Quarter

Hourly Weather History & Observations

Time (EST) Temp. Dew Point Humidity Pressure Visibility Wind Dir Wind Speed Gust Speed Precip Events Conditions
12:53 AM 70.0 °F 36.0 °F 29% 30.04 in 10.0 mi NE 3.5 mph - N/A   Clear
1:53 AM 69.1 °F 33.1 °F 26% 30.03 in 10.0 mi NNE 3.5 mph - N/A   Clear
2:53 AM 70.0 °F 32.0 °F 25% 30.01 in 10.0 mi ENE 4.6 mph - N/A   Clear
3:53 AM 69.1 °F 30.9 °F 24% 30.02 in 10.0 mi NNE 5.8 mph - N/A   Clear
4:53 AM 69.1 °F 27.0 °F 21% 30.01 in 10.0 mi ENE 5.8 mph - 0.01 in   Clear
5:53 AM 69.1 °F 26.1 °F 20% 30.01 in 10.0 mi ENE 5.8 mph - N/A   Clear
5:55 AM 69.8 °F 26.6 °F 20% 30.02 in 10.0 mi ENE 4.6 mph - N/A   Clear
6:53 AM 68.0 °F 66.6 °F 95% 30.04 in 10.0 mi NE 4.6 mph - N/A   Clear
7:53 AM 70.0 °F 67.6 °F 92% 30.05 in 10.0 mi ENE 5.8 mph - N/A   Clear
8:53 AM 72.0 °F 66.7 °F 84% 30.07 in 10.0 mi East 8.1 mph - N/A   Scattered Clouds
9:53 AM 73.9 °F 66.2 °F 77% 30.08 in 10.0 mi East 8.1 mph - N/A   Partly Cloudy
10:53 AM 77.0 °F 70.0 °F 79% 30.08 in 10.0 mi East 10.4 mph - N/A   Clear
11:53 AM 78.1 °F 70.9 °F 78% 30.07 in 10.0 mi East 10.4 mph - N/A   Clear
12:53 PM 78.1 °F 66.2 °F 67% 30.05 in 10.0 mi East 9.2 mph - N/A   Clear
1:53 PM 78.1 °F 66.2 °F 67% 30.01 in 10.0 mi ESE 8.1 mph - N/A   Clear
2:53 PM 79.0 °F 71.1 °F 77% 29.99 in 10.0 mi SE 10.4 mph - N/A   Clear
3:53 PM 79.0 °F 71.1 °F 77% 29.98 in 10.0 mi SE 9.2 mph - N/A   Clear
4:53 PM 78.1 °F 69.1 °F 74% 29.99 in 10.0 mi ESE 6.9 mph - N/A   Clear
5:53 PM 75.0 °F 69.1 °F 82% 29.99 in 10.0 mi East 5.8 mph - N/A   Clear
6:53 PM 73.0 °F 69.1 °F 87% 29.99 in 10.0 mi East 4.6 mph - N/A   Clear
7:53 PM 73.0 °F 70.0 °F 90% 30.01 in 10.0 mi East 4.6 mph - N/A   Clear
8:29 PM - - N/A% - - North - - N/A   Unknown
8:53 PM 73.9 °F 70.0 °F 87% 30.03 in 10.0 mi ENE 3.5 mph - N/A   Clear
9:53 PM 73.0 °F 70.0 °F 90% 30.04 in 10.0 mi ENE 3.5 mph - N/A   Clear
10:53 PM 73.9 °F 71.1 °F 91% 30.05 in 10.0 mi ENE 3.5 mph - N/A   Overcast
11:53 PM 73.0 °F 71.1 °F 93% 30.04 in 10.0 mi East 3.5 mph - N/A   Overcast